Regional Weather Roundup
Issued by NWS

Home | Current Version | Previous Version | Text Only | Print | Product List | Glossary Off
Versions: 1 2 3 4 5 6 7 8 9 10 11 12 13 14 15 16 17 18 19 20 21 22 23 24 25 26 27 28 29 30 31 32 33 34 35 36 37 38 39 40 41 42 43 44 45 46 47 48 49 50

000
ASUS43 KOAX 241810
RWRNE

WEATHER ROUNDUP FOR NEBRASKA
NATIONAL WEATHER SERVICE OMAHA NE
100 PM CDT MON APR 24 2017

NOTES: SATELLITE DATA IS BEING USED TO AUGMENT CLOUD COVER ABOVE
       12000 FEET.
       "FAIR" INDICATES FEW OR NO CLOUDS BELOW 12,000 FEET WITH NO
       SIGNIFICANT WEATHER AND/OR OBSTRUCTIONS TO VISIBILITY.

  * THESE STATIONS DO NOT REPORT WEATHER SUCH AS RAIN...SNOW OR FOG.

NEZ001>004-019>022-054>056-241900-
NEBRASKA PANHANDLE

CITY           SKY/WX    TMP DP  RH WIND       PRES   REMARKS
SCOTTSBLUFF    SUNNY     66  33  29 NW15G21   29.64F
6HR MIN TEMP:  52; 6HR MAX TEMP:  66;

ALLIANCE       SUNNY     64  36  35 NW17G24   29.62F
6HR MIN TEMP:  41; 6HR MAX TEMP:  64;

CHADRON        SUNNY     62  40  44 NW13G21   29.62S
6HR MIN TEMP:  46; 6HR MAX TEMP:  62;

KIMBALL        SUNNY     62  35  36 NW10G21   29.67F
SIDNEY         SUNNY     63  40  42 NW23G29   29.65F
6HR MIN TEMP:  50; 6HR MAX TEMP:  64;

$$

NEZ057>060-069>072-079>082-241900-
SOUTHWEST NEBRASKA

CITY           SKY/WX    TMP DP  RH WIND       PRES   REMARKS
NORTH PLATTE   SUNNY     68  45  43 NW20G29   29.55R
6HR MIN TEMP:  46; 6HR MAX TEMP:  71;

IMPERIAL       SUNNY     70  40  33 N22G32    29.59S
6HR MIN TEMP:  42; 6HR MAX TEMP:  70;

LEXINGTON      CLOUDY    62  39  42 NE3       29.54S
MCCOOK         SUNNY     75  43  31 N13G21    29.54F
6HR MIN TEMP:  48; 6HR MAX TEMP:  75;

OGALLALA       SUNNY     70  38  31 NW21G29   29.60S
$$

NEZ005>010-023>029-035>040-094-241900-
NORTH CENTRAL NEBRASKA

CITY           SKY/WX    TMP DP  RH WIND       PRES   REMARKS
VALENTINE      MOSUNNY   57  39  51 NW21      29.58F
6HR MIN TEMP:  48; 6HR MAX TEMP:  56;

AINSWORTH      CLOUDY    49  41  73 N15       29.60R
BROKEN BOW     MOSUNNY   66  41  40 E6        29.52F
6HR MIN TEMP:  50; 6HR MAX TEMP:  66; 6HR PCP: TRACE;

O`NEILL        MOSUNNY   64  39  40 SW7       29.55F
ORD            CLOUDY    62  39  42 VRB6      29.55S
6HR MIN TEMP:  51; 6HR MAX TEMP:  62; 6HR PCP: TRACE;

THEDFORD       CLOUDY    56  42  59 N15G29    29.59F
$$

NEZ041-046>049-061>064-073>077-083>087-241900-
SOUTH CENTRAL NEBRASKA

CITY           SKY/WX    TMP DP  RH WIND       PRES   REMARKS
GRAND ISLAND   PTSUNNY   67  42  40 SW16      29.55F
6HR MIN TEMP:  51; 6HR MAX TEMP:  67; 6HR PCP: TRACE;

AURORA         CLOUDY    66  38  35 SW17      29.54F
HASTINGS       MOSUNNY   66  38  35 SW15      29.56S
6HR MIN TEMP:  52; 6HR MAX TEMP:  66;

HEBRON         MOSUNNY   71  39  31 S25G35    29.57F
HOLDREGE       PTSUNNY   62  37  40 NE3       29.53F
KEARNEY *      CLOUDY    63  37  39 S7        29.55S
YORK           CLOUDY    72  37  28 SW24G33   29.55F
$$

NEZ011>018-030>034-042>045-241900-
NORTHEAST NEBRASKA

CITY           SKY/WX    TMP DP  RH WIND       PRES   REMARKS
NORFOLK        CLOUDY    69  38  32 S23G32    29.54F
6HR MIN TEMP:  51; 6HR MAX TEMP:  69;

ALBION         CLOUDY    67  40  36 S18G25    29.54F
BLAIR          MOSUNNY   70  36  28 S26G37    29.61F
FREMONT        SUNNY     70  38  31 S23G31    29.60F
TEKAMAH        CLOUDY    69  39  33 S30G39    29.60F
6HR MIN TEMP:  50; 6HR MAX TEMP:  70;

WAYNE          CLOUDY    67  42  41 S21G31    29.56F
$$

NEZ050>053-065>068-078-088>093-241900-
SOUTHEAST NEBRASKA

CITY           SKY/WX    TMP DP  RH WIND       PRES   REMARKS
LINCOLN        SUNNY     73  39  29 S22G37    29.58F
6HR MIN TEMP:  52; 6HR MAX TEMP:  73;

OMAHA EPPLEY   PTSUNNY   71  35  26 S28G39    29.62F
6HR MIN TEMP:  54; 6HR MAX TEMP:  72;

BEATRICE       SUNNY     71  42  35 S22G35    29.59F
FALLS CITY     SUNNY     70  36  28 S24G38    29.67F
6HR MIN TEMP:  50; 6HR MAX TEMP:  70;

NEBRASKA CITY  SUNNY     70  28  20 S25G37    29.65F
PLATTSMOUTH    CLOUDY    71  26  19 S20G32    29.64F
$$

NEZ044-045-051>053-067-241900-
OMAHA AREA

CITY           SKY/WX    TMP DP  RH WIND       PRES   REMARKS
OMAHA EPPLEY   PTSUNNY   71  35  26 S28G39    29.62F
6HR MIN TEMP:  54; 6HR MAX TEMP:  72;

BLAIR          MOSUNNY   70  36  28 S26G37    29.61F
FREMONT        SUNNY     70  38  31 S23G31    29.60F
MILLARD        SUNNY     71  39  30 S23G31    29.62F
OFFUTT AFB     MOSUNNY   71  35  26 S30G38    29.62F
PLATTSMOUTH    CLOUDY    71  26  19 S20G32    29.64F
WAHOO          FAIR      70  36  29 S26G33    29.60F
$$




USA.gov is the U.S. government's official web portal to all federal, state and local government web resources and services.